星链-36860(STARLINK-36860)

导读

STARLINK-36860(NORAD编号67935)是SpaceX星链(Starlink)低轨互联网星座中的一颗通信卫星,属于星链大规模组网部署计划的组成部分。星链项目由SpaceX在2015年启动,目标部署超4万颗低轨卫星,提供全球覆盖的卫星互联网服务。 该卫星运行于近地轨道,是SpaceX计划在2026年降低轨道至480公里的4400颗星链卫星之一,降轨旨在提升太空安全,减少碰撞风险与空间碎片威胁。它采用星链标准化设计,配备氪离子推进系统和自主碰撞规避系统,依托Ku/Ka频段提供通信服务,支撑全球偏远地区、移动场景的互联网接入。

基本信息
目录编号:
67935
目录名称:
STARLINK-36860
国际标识:
2026-037D
轨道中心:
EARTH
卫星名称:
星链-36860
卫星全名:
星链-36860(STARLINK-36860)
卫星状态:
在轨 (已飞行109 天)
发射日期:
2026-02-24 UTC
国别 :
美国 (US)
星等 :
--
轨道信息
数据来源 国际轨道数据
星历时间: 2026-06-12T14:40:41+0800
19小时前
查看轨道信息
半长轴: 6861.15km
偏心率: 0.0002116
轨道倾角: 43.000°
近地点辐角 272.233°
升交点赤经 16.821°
平近点角 87.828°
近地点: 481.561km
远地点: 484.465km
周期: 94.266分钟
每日圈数: 15.275922
详细信息
固有亮度:
5
最大亮度:
2.5
卫星平台:
Starlink V1.0
覆盖范围:
全球
运营商:
太空探索技术公司
运营商所在国:
美国
制造商(研发单位):
太空探索技术公司
制造商所在国:
美国
使用方式:
暂无
卫星简介
Starlink 计划是 SpaceX 推出的全球卫星互联网项目,通过发射低轨道卫星,为全球尤其是偏远地区提供高速、低延迟的互联网服务。自 2019 年起,Starlink 已部署数千颗卫星,旨在缩小全球数字鸿沟,推动互联网普及。该项目还为军事、航空等行业提供通信支持,带来广泛经济效益。
2D轨道图
3D轨道图
轨道高度分析图
轨道倾角分析图
轨道综合分析图
查看轨道综合分析图